Regional Weather Roundup
Issued by NWS

Home | Current Version | Previous Version | Text Only | Print | Product List | Glossary Off
Versions: 1 2 3 4 5 6 7 8 9 10 11 12 13 14 15 16 17 18 19 20 21 22 23 24 25 26 27 28 29 30 31 32 33 34 35 36 37 38 39 40 41 42 43 44 45 46 47 48 49 50

000
ASUS45 KCYS 292310
RWRWY

WYOMING REGIONAL WEATHER ROUNDUP
NATIONAL WEATHER SERVICE CHEYENNE WY
500 PM MDT FRI MAY 29 2015

NOTE:  "FAIR" INDICATES FEW OR NO CLOUDS BELOW 12,000 FEET
WITH NO SIGNIFICANT WEATHER AND/OR OBSTRUCTIONS TO VISIBILITY.

WYZ001-300000-
YELLOWSTONE NATIONAL PARK

CITY           SKY/WX    TMP DP  RH WIND       PRES   REMARKS
LK YELLOWSTONE   N/A     55  37  50 VRB6      30.31S
W YELLOWSTONE  NOT AVBL

$$
WYZ002>013-054>058-071-098>099-300000-
NORTHERN WYOMING

CITY           SKY/WX    TMP DP  RH WIND       PRES   REMARKS
JACKSON        PTSUNNY   63  36  36 SW7       30.24S
CODY           CLOUDY    61  46  59 N5        30.22F
GREYBULL       FAIR      69  41  36 VRB3      30.18F
WORLAND        FAIR      67  42  40 VRB3      30.20F
SHERIDAN       CLOUDY    55  44  66 CALM      30.28F
BUFFALO        CLOUDY    51  43  74 NW3       30.31S
GILLETTE       FAIR      58  35  42 NE8       30.28R
HULETT         FAIR      54  34  47 N5        30.29F
NEWCASTLE      FAIR      59  32  36 NW15G23   30.25F

$$
WYZ014>020-022>026-101>103-300000-
CENTRAL WYOMING

CITY           SKY/WX    TMP DP  RH WIND       PRES   REMARKS
BIG PINEY      CLOUDY    55  42  61 W17       30.31S
PINEDALE       MOCLDY    57  36  44 S6        30.30S
DUBOIS         CLOUDY    52  39  62 SE7       30.30R
LANDER         FAIR      60  44  55 VRB5      30.24F
RIVERTON       FAIR      62  43  49 E6        30.26F
CASPER         PTSUNNY   56  44  64 NE7       30.31S
DOUGLAS        CLOUDY    55  45  68 N12       30.30S

$$
WYZ021-027>030-104>119-300000-
SOUTHERN WYOMING

CITY           SKY/WX    TMP DP  RH WIND       PRES   REMARKS
EVANSTON       FAIR      64  37  36 VRB3      30.27F
KEMMERER       FAIR      64  32  29 CALM      30.29F
FORT BRIDGER   CLEAR     64  41  42 N8        30.30F
ROCK SPRINGS   FAIR      61  37  41 CALM      30.28F
DIXON          FAIR      56  42  58 NE15      30.32S
RAWLINS        PTSUNNY   58  40  51 N8        30.31R
SARATOGA       FAIR      54  41  62 N14       30.32R
LARAMIE        PTSUNNY   55  39  54 N15G23    30.30R
CHEYENNE       CLOUDY    53  42  66 N20G29    30.28R
TORRINGTON     LGT RAIN  52  49  89 NE12      30.26S
PINE BLUFFS    CLOUDY    52  46  82 N21G26    30.27R

$$


USA.gov is the U.S. government's official web portal to all federal, state and local government web resources and services.